Content
SEND FEEDBACK

Daily
Averages
Monthly
Summary
Germany

MUNICH, GERMANY


Home > Europe > Germany
Elevation: 1735 feet     Latitude: 48 08N     Longitude: 011 42E

WEATHER
 
SELECT A DAY
Number of Records: 296,350;   Date Range: 7/1/96 - 10/21/14
 
SHARE

PRINT THIS DATA

[ ← Previous Day ]
WEATHER ALMANAC - FEBRUARY 20, 2013
[ Next Day → ]
[ °C ]   °F
Weather ElementAverageHighLow
Temperature28.2 °F33.8 °F (2:50 pm)24.8 °F (9:20 pm)
Dewpoint24 °F32 °F (1:20 am)19.4 °F (3:50 pm)
Humidity84.7 %100 % (1:20 am)64 % (3:50 pm)
Barometer30.04 in30.09 in (9:50 pm)29.95 in (1:20 am)
Wind Speed5.6 mph12.7 mph (4:50 pm)
Weather ElementAverage
Visibility5.8 mi
Wind DirectionE (92.4 °)

Weather ElementTotal
Precipitation---
Heating Degree Days35.7 (Base 65)
Averaged from 46 records on February 20, 2013
WEATHER CONDITIONS BREAKOUT
WIND DIRECTION BREAKOUT
WEATHER BY HOUR - FEBRUARY 20, 2013
[ °C ]   °F
Local TimeTemperatureDewpointHumidityBarometerVisibilityWind DirectionWind SpeedGust SpeedPrecipitationEventsConditions
1:20 AM32.0 °F32.0 °F100 %29.95 in1.9 miWest (280°)4.6 mphSnowLight Snow
1:50 AM30.2 °F30.2 °F100 %29.95 in1.9 miWNW (290°)5.8 mphSnowLight Snow
2:20 AM30.2 °F30.2 °F100 %29.98 in2.5 miNorth (360°)5.8 mphSnowLight Snow
2:50 AM30.2 °F30.2 °F100 %29.98 in6.2 miNorth (360°)3.5 mphSnowLight Snow
3:20 AM30.2 °F30.2 °F100 %29.98 in6.2 miNorth (10°)4.6 mphOvercast
3:50 AM28.4 °F28.4 °F100 %29.98 in6.2 miNNE (20°)4.6 mphOvercast
4:20 AM28.4 °F26.6 °F93 %29.98 in6.2 miNNE (30°)4.6 mphSnowLight Snow
4:50 AM28.4 °F26.6 °F93 %30.01 in5.0 miNorth (360°)3.5 mphSnowLight Snow
5:20 AM28.4 °F26.6 °F93 %30.01 in6.2 miNorth (360°)3.5 mphMostly Cloudy
5:50 AM28.4 °F26.6 °F93 %30.01 in6.2 miNorth (350°)2.3 mphMostly Cloudy
6:20 AM26.6 °F26.6 °F100 %30.01 in6.2 miNorth (360°)3.5 mphMostly Cloudy
6:50 AM26.6 °F26.6 °F100 %30.01 in6.2 miNorth (10°)3.5 mphMostly Cloudy
7:20 AM26.6 °F24.8 °F93 %30.04 in6.2 miNNE (20°)5.8 mphMostly Cloudy
7:50 AM26.6 °F24.8 °F93 %30.04 in6.2 miNNE (20°)5.8 mphMostly Cloudy
8:20 AM26.6 °F24.8 °F93 %30.04 in6.2 miNNE (20°)5.8 mphSnowLight Snow
8:50 AM28.4 °F24.8 °F86 %30.04 in6.2 miNNE (20°)5.8 mphMostly Cloudy
9:20 AM28.4 °F24.8 °F86 %30.04 in6.2 miNNE (20°)5.8 mphMostly Cloudy
9:50 AM28.4 °F24.8 °F86 %30.06 in6.2 miNorth (10°)3.5 mphMostly Cloudy
10:20 AM28.4 °F23.0 °F80 %30.06 in6.2 miNorth (10°)4.6 mphMostly Cloudy
10:50 AM28.4 °F23.0 °F80 %30.06 in6.2 miNorth (10°)5.8 mphMostly Cloudy
11:20 AM28.4 °F23.0 °F80 %30.06 in6.2 miNNE (20°)4.6 mphScattered Clouds
11:50 AM30.2 °F23.0 °F75 %30.06 in6.2 miNNE (30°)5.8 mphScattered Clouds
12:20 PM30.2 °F23.0 °F75 %30.06 in6.2 miNorth (10°)5.8 mphScattered Clouds
12:50 PM30.2 °F23.0 °F75 %30.06 in6.2 miNNE (20°)5.8 mphScattered Clouds
1:20 PM30.2 °F23.0 °F75 %30.06 in6.2 miENE (70°)4.6 mphScattered Clouds
1:50 PM30.2 °F21.2 °F69 %30.06 in6.2 miNNE (30°)5.8 mphScattered Clouds
2:20 PM30.2 °F21.2 °F69 %30.06 in6.2 miNE (50°)5.8 mphScattered Clouds
2:50 PM33.8 °F24.8 °F70 %30.04 in6.2 miNE (50°)4.6 mphScattered Clouds
3:20 PM30.2 °F21.2 °F69 %30.06 in6.2 miNorth (10°)5.8 mphScattered Clouds
3:50 PM30.2 °F19.4 °F64 %30.04 in6.2 miVariable2.3 mphScattered Clouds
4:20 PM30.2 °F19.4 °F64 %30.06 in6.2 miNorth (10°)4.6 mphMostly Cloudy
4:50 PM28.4 °F23.0 °F80 %30.06 in2.5 miNNE (30°)12.7 mphSnowSnow Showers
5:20 PM28.4 °F23.0 °F80 %30.06 in6.2 miNE (40°)9.2 mphSnowSnow Showers
5:50 PM26.6 °F23.0 °F86 %30.06 in5.0 miNNE (20°)5.8 mphSnowLight Snow Showers
6:20 PM26.6 °F23.0 °F86 %30.06 in6.2 miNorth (10°)5.8 mphSnowLight Snow Showers
6:50 PM26.6 °F23.0 °F86 %30.06 in6.2 miNNE (20°)6.9 mphSnowLight Snow Showers
7:20 PM26.6 °F23.0 °F86 %30.06 in6.2 miNNE (30°)5.8 mphMostly Cloudy
7:50 PM26.6 °F21.2 °F80 %30.06 in6.2 miNNE (30°)5.8 mphMostly Cloudy
8:20 PM26.6 °F21.2 °F80 %30.06 in6.2 miNorth (10°)4.6 mphMostly Cloudy
8:50 PM26.6 °F21.2 °F80 %30.06 in6.2 miNorth (350°)4.6 mphMostly Cloudy
9:20 PM24.8 °F21.2 °F86 %30.06 in6.2 miNNW (340°)5.8 mphMostly Cloudy
9:50 PM24.8 °F21.2 °F86 %30.09 in6.2 miNNE (20°)9.2 mphMostly Cloudy
10:20 PM26.6 °F21.2 °F80 %30.06 in6.2 miNNE (30°)6.9 mphMostly Cloudy
10:50 PM26.6 °F21.2 °F80 %30.06 in6.2 miNE (40°)8.1 mphMostly Cloudy
11:20 PM24.8 °F21.2 °F86 %30.06 in6.2 miNE (40°)10.4 mphMostly Cloudy
11:50 PM24.8 °F19.4 °F80 %30.06 inNNE (20°)6.9 mphClear
Hourly data recorded from EDDM, located miles away from Munich, Germany







STORIES FROM OUR PARTNERS